Location: Newark
(36.1358°N, 115.1208°W)
Time: 19:04:39
(UTC+00:00)

ISS - Visible Passes

Search period start: 26 September 2021 00:00
Search period end: 06 October 2021 00:00
Orbit: 417 x 423 km, 51.6° (Epoch: 26 September)

Date Brightness Start Highest point End Pass type
(mag) Time Alt. Az. Time Alt. Az. Time Alt. Az.
30 Sep -0.6 03:41:45 10° NNW 03:41:50 10° NNW 03:41:50 10° NNW visible
01 Oct -1.4 02:55:09 10° N 02:56:35 14° NNE 02:56:35 14° NNE visible
02 Oct -1.2 02:09:04 10° N 02:09:42 10° NNE 02:10:20 10° NNE visible
02 Oct -0.7 03:43:54 10° NW 03:44:25 14° NW 03:44:25 14° NW visible
03 Oct -2.3 02:57:07 10° NNW 02:59:23 27° N 02:59:23 27° N visible
04 Oct -2.0 02:10:28 10° NNW 02:13:03 20° NNE 02:14:29 16° ENE visible
04 Oct -0.6 03:46:48 10° WNW 03:47:29 15° WNW 03:47:29 15° WNW visible
05 Oct -3.4 02:59:48 10° NW 03:02:44 65° WNW 03:02:44 65° WNW visible
